This is the latest recevied weather packets stored in our database for station/object KC1OEK-13. If no packets are shown the sender has not sent any weather packets the latest 10 day(s).
| Time | Temp. | Humidity | Pressure | Rain* | Wind** | Luminosity | Snow |
|---|---|---|---|---|---|---|---|
| 1777773725 | 7.22° C | 60% | 1013.3 hPa | 0 mm | - | 0 W/m² | - |
| 1777773422 | 7.22° C | 60% | 1013.1 hPa | 0 mm | - | 0 W/m² | - |
| 1777773119 | 7.78° C | 59% | 1013.2 hPa | 0 mm | - | 0 W/m² | - |
| 1777772815 | 7.78° C | 59% | 1013.1 hPa | 0 mm | - | 0 W/m² | - |
| 1777772513 | 7.78° C | 58% | 1013.1 hPa | 0 mm | - | 0 W/m² | - |
| 1777772210 | 8.33° C | 59% | 1013.1 hPa | 0 mm | - | 0 W/m² | - |
| 1777771908 | 7.78° C | 55% | 1013.2 hPa | 0 mm | - | 0 W/m² | - |
| 1777771604 | 8.33° C | 58% | 1013.3 hPa | 0 mm | - | 0 W/m² | - |
| 1777771301 | 8.33° C | 57% | 1013.3 hPa | 0 mm | - | 0 W/m² | - |
| 1777770998 | 8.33° C | 54% | 1013.1 hPa | 0 mm | - | 0 W/m² | - |
| 1777770695 | 8.89° C | 55% | 1013.1 hPa | 0 mm | - | 0 W/m² | - |
| 1777770391 | 9.44° C | 51% | 1013.1 hPa | 0 mm | - | 0 W/m² | - |
| 1777770089 | 9.44° C | 50% | 1013.1 hPa | 0 mm | - | 0 W/m² | - |
| 1777769785 | 8.89° C | 52% | 1013 hPa | 0 mm | - | 0 W/m² | - |
| 1777769483 | 9.44° C | 52% | 1012.9 hPa | 0 mm | - | 0 W/m² | - |
| 1777769179 | 9.44° C | 52% | 1013 hPa | 0 mm | - | 0 W/m² | - |
| 1777768878 | 10° C | 49% | 1012.9 hPa | 0 mm | - | 0 W/m² | - |
| 1777768574 | 10° C | 49% | 1012.8 hPa | 0 mm | - | 0 W/m² | - |
| 1777768271 | 10° C | 50% | 1012.6 hPa | 0 mm | - | 0 W/m² | - |
| 1777767968 | 10° C | 51% | 1012.5 hPa | 0 mm | - | 0 W/m² | - |
| 1777767664 | 10° C | 51% | 1012.8 hPa | 0 mm | - | 0 W/m² | - |
| 1777767361 | 10° C | 52% | 1012.7 hPa | 0 mm | - | 0 W/m² | - |
| 1777767058 | 10° C | 52% | 1012.8 hPa | 0 mm | - | 0 W/m² | - |
| 1777766755 | 10° C | 54% | 1012.5 hPa | 0 mm | - | 0 W/m² | - |
| 1777766452 | 10° C | 50% | 1012.5 hPa | 0 mm | - | 1 W/m² | - |
* Rain latest hour (hover to see other rain measurements)
** Current wind speed in m/s (hover to see current wind gust speed)